Location: Stuttgart
(48.8069°N, 9.1544°E)
Time: 04:46:41
(UTC+01:00)

ISS - Pass Details

Date: 12 January 2018
Orbit: 402 x 407 km, 51.6° (Epoch: 18 January)

Event Time Altitude Azimuth Distance (km) Brightness Sun altitude
Exits shadow 06:23:55 47° 244° (WSW) 550 -3.5 -17.3°
Maximum altitude 06:24:24 53° 208° (SSW) 507 -3.5 -17.3°
Drops below altitude 10° 06:27:37 10° 131° (SE) 1,463 0.0 -16.8°
Sets 06:29:43 0° 126° (SE) 2,321 1.3 -16.4°
